Home > Time Zones > World Clock > Weather > Spain > Palma > Past weeks

Flag for Spain Weather past 2 weeks in Palma, Majorca, Spain

Now
97 °F

Passing clouds.


Feels Like: 96 °F
Forecast: 68 / 92 °F
Wind: 15 mph from Southwest

Location: Palma De Mallorca / Son San Juan

Current Time: Jul 6, 2015 at 4:32:48 PM

Latest Report: Jul 6, 2015 at 4:00 PM


Visibility: N/A

Pressure: 30.09 "Hg

Humidity: 27%

Dew point: 57 °F

Location of PalmaLocation

Historic Weather in Palma — Graph

°F

Palma temperature yesterday

Maximum temperature yesterday: 97 °F (at 11:30 AM)
Minimum temperature yesterday: 68 °F (at 6:30 AM)
Average temperature yesterday: 85 °F

Past Weeks' High & Low Weather Summary

 TemperatureHumidityPressure
High102 °F (Jul 4, 3:30 PM)100% (Jun 27, 3:00 AM)30.18 "Hg (Jun 27, 3:00 AM)
Low59 °F (Jun 27, 6:30 AM)19% (Jul 1, 5:00 PM)29.86 "Hg (Jun 23, 5:30 AM)
Average80 °F55%30.08 "Hg
* Reported Jun 21 3:00 PM — Jul 6 3:30 PM, Palma, Weather by CustomWeather, © 2015

Note: Actual official high and low records may vary slightly from our data, if they occured in-between our weather recording intervals... More about our weather records

Advertising

Palma weather history for previous 24 hours

 ConditionsComfort  
Time TempWeatherWind HumidityBarometerVisibility
3:30 PM
Mon, Jul 6
97 °FSunny.14 mph27%30.09 "Hg10 mi
3:00 PM97 °FSunny.15 mph27%30.09 "Hg10 mi
2:30 PM93 °FSunny.14 mph36%30.09 "Hg10 mi
2:00 PM95 °FSunny.14 mph34%30.09 "Hg10 mi
1:30 PM93 °FSunny.13 mph36%30.09 "Hg10 mi
1:00 PM93 °FSunny.12 mph34%30.09 "Hg10 mi
12:30 PM93 °FSunny.9 mph34%30.09 "Hg10 mi
12:00 PM93 °FPassing clouds.8 mph32%30.09 "HgN/A
11:30 AM95 °FSunny.9 mph30%30.09 "Hg10 mi
11:00 AM95 °FSunny.1 mph28%30.09 "Hg10 mi
10:30 AM93 °FSunny.1 mph30%30.09 "Hg10 mi
10:00 AM91 °FSunny.No wind34%30.09 "Hg10 mi
9:30 AM90 °FSunny.1 mph38%30.09 "Hg10 mi
9:00 AM86 °FSunny.1 mph43%30.09 "Hg10 mi
8:30 AM81 °FSunny.1 mph48%30.09 "Hg10 mi
8:00 AM77 °FSunny.No wind51%30.09 "Hg10 mi
7:30 AM72 °FSunny.No wind61%30.09 "Hg10 mi
7:00 AM70 °FClear.1 mph64%30.09 "Hg10 mi
6:30 AM70 °FClear.1 mph64%30.09 "Hg10 mi
6:00 AM70 °FClear.2 mph64%30.07 "Hg10 mi
5:30 AM70 °FClear.1 mph64%30.07 "Hg10 mi
5:00 AM70 °FClear.1 mph69%30.09 "Hg10 mi
4:30 AM70 °FClear.1 mph69%30.09 "Hg10 mi
4:00 AM72 °FClear.1 mph65%30.09 "Hg10 mi
3:30 AM73 °FClear.1 mph57%30.09 "Hg10 mi
3:00 AM73 °FClear.No wind61%30.09 "Hg10 mi
2:30 AM73 °FClear.1 mph61%30.09 "Hg10 mi
2:00 AM73 °FClear.2 mph61%30.09 "Hg10 mi
1:30 AM75 °FClear.No wind57%30.09 "Hg10 mi
1:00 AM75 °FClear.1 mph61%30.09 "Hg10 mi
12:30 AM79 °FClear.No wind58%30.09 "Hg10 mi
12:00 AM79 °FClear.No wind61%30.09 "Hg10 mi
11:30 PM
Sun, Jul 5
79 °FClear.1 mph61%30.09 "Hg10 mi
11:00 PM82 °FClear.No wind51%30.09 "Hg10 mi
10:30 PM82 °FClear.1 mph51%30.09 "Hg10 mi
10:00 PM88 °FSunny.1 mph38%30.07 "Hg10 mi
9:30 PM84 °FSunny.2 mph55%30.07 "Hg10 mi
9:00 PM86 °FPassing clouds.3 mph55%30.07 "HgN/A
8:30 PM88 °FPassing clouds.7 mph52%30.07 "HgN/A
8:00 PM90 °FPassing clouds.6 mph46%30.07 "HgN/A
7:30 PM90 °FPassing clouds.7 mph49%30.04 "HgN/A
7:00 PM91 °FPassing clouds.7 mph46%30.04 "HgN/A
6:30 PM90 °FPassing clouds.6 mph52%30.07 "HgN/A
6:00 PM97 °FPassing clouds.10 mph32%30.07 "HgN/A
5:30 PM97 °FPassing clouds.9 mph30%30.07 "HgN/A
5:00 PM95 °FPassing clouds.13 mph34%30.07 "HgN/A
4:30 PM91 °FSunny.14 mph46%30.07 "Hg10 mi
4:00 PM90 °FPassing clouds.15 mph52%30.07 "HgN/A
Weather by CustomWeather, © 2015

See weather overviewHow to use our weather pages